Weather History for Childress, TX

Change the Weather History Date:

Wednesday, October 23, 2013

  Actual Average Record
Temperature  
Mean Temperature 64 °F 61 °F  
Max Temperature 83 °F 74 °F 90 °F (2003)
Min Temperature 44 °F 48 °F 31 °F (1906)
Degree Days  
Heating Degree Days 1 6  
Month to date heating degree days 85 81  
Since 1 July heating degree days 85 98  
Cooling Degree Days 0 1  
Month to date cooling degree days 77 67  
Year to date cooling degree days 2383 2191  
Growing Degree Days 13 (Base 50)    
Moisture  
Dew Point 33 °F    
Average Humidity 45    
Maximum Humidity 76    
Minimum Humidity 13    
Precipitation  
Precipitation 0.00 in 0.08 in 1.00 in (1930)
Month to date precipitation 0.51 1.75  
Year to date precipitation 14.44 21.26  
Snow  
Snow 0.00 in 0.00 in - ()
Month to date snowfall 0.0 0.1  
Since 1 July snowfall 0.0 0.1  
Since 1 September snowfall 0.0 0.1  
Snow Depth -    
Sea Level Pressure  
Sea Level Pressure 30.05 in    
Wind  
Wind Speed 10 mph (SW)    
Max Wind Speed 21 mph    
Max Gust Speed 29 mph    
Visibility 10 miles    
Events      
T = Trace of Precipitation, MM = Missing Value Source: NWS Daily Summary

Daily Weather History Graph

Daily Weather History Graph

Search for Another Location

Airport:

Trip Planner

Search our weather history database for the weather conditions in past years. The results will help you decide how hot, cold, wet, or windy it might be!

Date:

Astronomy

Oct. 23, 2013 Rise Set
Actual Time 7:53 AM CDT 6:56 PM CDT
Civil Twilight 7:27 AM CDT 7:22 PM CDT
Nautical Twilight 6:58 AM CDT 7:51 PM CDT
Astronomical Twilight 6:29 AM CDT 8:20 PM CDT
Moon 10:35 PM CDT (10/23) 12:05 PM CDT (10/23)
Length of Visible Light 11h 54m
Length of Day
11h 03m
Waning Gibbous, 79% of the Moon is Illuminated
Oct 23
Waning Gibbous
Oct 26
Last Quarter
Nov 3
New
Nov 9
First Quarter
Nov 17
Full

Hourly Weather History & Observations

Time (CDT) Temp. Windchill Dew Point Humidity Pressure Visibility Wind Dir Wind Speed Gust Speed Precip Events Conditions
12:53 AM 51.1 °F - 35.1 °F 54% 30.13 in 10.0 mi South 9.2 mph - N/A   Clear
1:53 AM 55.9 °F - 35.1 °F 45% 30.07 in 10.0 mi SSE 8.1 mph - N/A   Clear
2:53 AM 54.0 °F - 36.0 °F 51% 30.07 in 10.0 mi SE 10.4 mph - N/A   Clear
3:53 AM 55.0 °F - 37.0 °F 51% 30.06 in 10.0 mi SE 6.9 mph - N/A   Clear
4:53 AM 50.0 °F - 37.9 °F 63% 30.06 in 10.0 mi East 3.5 mph - N/A   Clear
5:53 AM 52.0 °F - 37.9 °F 59% 30.06 in 10.0 mi SE 6.9 mph - N/A   Clear
6:53 AM 46.9 °F - 36.0 °F 66% 30.08 in 10.0 mi WSW 3.5 mph - N/A   Clear
7:53 AM 44.1 °F 40.1 °F 37.0 °F 76% 30.10 in 10.0 mi West 6.9 mph - N/A   Clear
8:53 AM 50.0 °F - 37.9 °F 63% 30.10 in 10.0 mi West 6.9 mph - N/A   Clear
9:53 AM 59.0 °F - 39.0 °F 48% 30.10 in 10.0 mi West 6.9 mph - N/A   Clear
10:53 AM 69.1 °F - 37.0 °F 31% 30.09 in 10.0 mi West 11.5 mph - N/A   Clear
11:53 AM 73.0 °F - 36.0 °F 26% 30.08 in 10.0 mi WSW 11.5 mph - N/A   Clear
12:53 PM 78.1 °F - 34.0 °F 20% 30.06 in 10.0 mi West 11.5 mph - N/A   Clear
1:53 PM 81.0 °F - 32.0 °F 17% 30.02 in 10.0 mi WSW 17.3 mph 21.9 mph N/A   Clear
2:53 PM 82.9 °F - 30.9 °F 15% 29.99 in 10.0 mi WSW 17.3 mph 25.3 mph N/A   Clear
3:53 PM 82.9 °F - 30.0 °F 15% 29.98 in 10.0 mi WSW 12.7 mph 23.0 mph N/A   Clear
4:53 PM 82.9 °F - 27.0 °F 13% 29.98 in 10.0 mi WSW 16.1 mph 23.0 mph N/A   Clear
5:53 PM 81.0 °F - 27.0 °F 14% 29.98 in 10.0 mi WSW 13.8 mph - N/A   Clear
6:53 PM 73.0 °F - 30.0 °F 20% 30.00 in 10.0 mi SW 6.9 mph - N/A   Clear
7:53 PM 64.9 °F - 28.0 °F 25% 30.02 in 10.0 mi SSW 10.4 mph - N/A   Clear
8:53 PM 66.0 °F - 28.0 °F 24% 30.02 in 10.0 mi SSW 10.4 mph - N/A   Clear
9:53 PM 64.9 °F - 28.9 °F 26% 30.01 in 10.0 mi SSW 10.4 mph - N/A   Clear
10:53 PM 62.1 °F - 28.9 °F 29% 30.02 in 10.0 mi SW 11.5 mph - N/A   Clear
11:53 PM 63.0 °F - 32.0 °F 31% 30.06 in 10.0 mi NNW 8.1 mph - N/A   Clear